This is the latest recevied weather packets stored in our database for station/object OM5ZU-10. If no packets are shown the sender has not sent any weather packets the latest 10 day(s).
| Time | Temp. | Humidity | Pressure | Rain* | Wind** | Luminosity | Snow |
|---|---|---|---|---|---|---|---|
| 1788519008 | 29.44° C | 73% | 1017.2 hPa | - | - | - | - |
| 1788518108 | 28.33° C | 73% | 1017.5 hPa | - | - | - | - |
| 1788517208 | 28.89° C | 73% | 1017.7 hPa | - | - | - | - |
| 1788516308 | 27.78° C | 72% | 1017.9 hPa | - | - | - | - |
| 1788515408 | 28.33° C | 72% | 1018.3 hPa | - | - | - | - |
| 1788514508 | 27.78° C | 72% | 1018.5 hPa | - | - | - | - |
| 1788513607 | 27.22° C | 72% | 1018.6 hPa | - | - | - | - |
| 1788512707 | 28.33° C | 73% | 1018.8 hPa | - | - | - | - |
| 1788511807 | 26.67° C | 72% | 1018.9 hPa | - | - | - | - |
| 1788510907 | 27.22° C | 72% | 1018.8 hPa | - | - | - | - |
| 1788510007 | 26.67° C | 72% | 1018.7 hPa | - | - | - | - |
| 1788509106 | 23.89° C | 72% | 1018.8 hPa | - | - | - | - |
| 1788508206 | 25.56° C | 72% | 1019.2 hPa | - | - | - | - |
| 1788507306 | 22.78° C | 72% | 1019 hPa | - | - | - | - |
| 1788506406 | 22.22° C | 72% | 1019 hPa | - | - | - | - |
| 1788505506 | 21.67° C | 72% | 1019 hPa | - | - | - | - |
| 1788504606 | 21.11° C | 72% | 1018.9 hPa | - | - | - | - |
| 1788503705 | 21.67° C | 72% | 1018.9 hPa | - | - | - | - |
| 1788502805 | 21.67° C | 72% | 1018.8 hPa | - | - | - | - |
| 1788501905 | 21.11° C | 72% | 1018.7 hPa | - | - | - | - |
| 1788501005 | 20° C | 72% | 1018.9 hPa | - | - | - | - |
| 1788500105 | 21.11° C | 72% | 1018.7 hPa | - | - | - | - |
| 1788499205 | 20° C | 72% | 1018.5 hPa | - | - | - | - |
| 1788498307 | 18.89° C | 72% | 1018.7 hPa | - | - | - | - |
| 1788497404 | 17.22° C | 72% | 1018.7 hPa | - | - | - | - |
* Rain since midnight (hover to see other rain measurements)
** Current wind speed in m/s (hover to see current wind gust speed)